Location: Palestine
(34.9737°N, 87.4542°W)
Time: 17:54:06
(UTC+00:00)

Envisat - Visible Passes

Search period start: 11 May 2026 00:00
Search period end: 21 May 2026 00:00
Orbit: 761 x 762 km, 98.4° (Epoch: 11 May)

Date Brightness Start Highest point End Pass type
(mag) Time Alt. Az. Time Alt. Az. Time Alt. Az.
11 May 3.1 08:11:40 10° NNE 08:16:43 65° ESE 08:17:18 59° SE visible
11 May 4.9 09:52:46 10° NW 09:55:02 13° WNW 09:57:16 10° W visible
12 May 4.6 07:34:33 10° NE 07:38:47 26° E 07:39:06 26° ESE visible
12 May 4.0 09:13:15 10° N 09:17:37 30° WNW 09:19:13 25° WSW visible
13 May 5.6 07:00:20 10° E 07:00:38 10° E 07:00:53 10° E visible
13 May 2.9 08:34:57 10° N 08:39:59 73° WNW 08:41:01 55° SW visible
14 May 3.7 07:57:19 10° NNE 08:02:10 45° E 08:02:49 43° ESE visible
14 May 4.6 09:37:20 10° NNW 09:40:41 18° WNW 09:42:57 14° W visible
15 May 5.0 07:20:39 10° NE 07:24:10 19° E 07:24:36 18° E visible
15 May 3.5 08:58:27 10° N 09:03:12 42° WNW 09:04:43 33° WSW visible
16 May 2.9 08:20:25 10° NNE 08:25:30 80° ESE 08:26:31 58° S visible
16 May 5.1 10:02:50 10° NW 10:03:41 10° WNW 10:04:32 10° WNW visible
17 May 4.2 07:43:05 10° NE 07:47:36 32° E 07:48:18 31° ESE visible
17 May 4.2 09:22:16 10° NNW 09:26:19 25° WNW 09:28:26 19° WSW visible
18 May 5.4 07:07:13 10° ENE 07:09:31 13° E 07:10:05 13° E visible
18 May 3.1 08:43:47 10° N 08:48:45 59° WNW 08:50:12 42° SW visible
19 May 3.4 08:05:59 10° NNE 08:10:58 57° E 08:11:59 48° SE visible
19 May 4.8 09:46:37 10° NNW 09:49:22 15° WNW 09:52:06 10° W visible
20 May 4.7 07:29:01 10° NE 07:33:00 23° E 07:33:46 22° ESE visible
20 May 3.8 09:07:24 10° N 09:11:55 34° WNW 09:13:53 25° WSW visible
